OV1-5 DEB, 5599

Orbit data source: Space-Track

OV1-5 DEB, 5599 is space debris in LEO originally from a launch on Wed, 30 Mar 1966 UTC launched from the Air Force Western Test Range (AFWTR). Debris objects in space refer to the collection of defunct objects orbiting the Earth. Examples of debris include non-operational satellites, rocket bodies, and fragments generated from explosions, collisions, or faulty payload assembly.

Loading next visibility...
Identifier
5599, 1966-025G
Orbit
LEO
Country
Flag of USUS
Related business
Flag of USAir Force Systems Command (OAR legacy assets) (US)
Manufacturer
Unknown
Mission
Spacecraft
Bus & Motor
Unknown
Mass
Unknown
Launch date (UTC)
1966-03-30 (60 years ago)
Launch vehicle
Unknown
Launch site
Air Force Western Test Range (AFWTR)
Object type
Payload
Rocket body
Debris
Shape & HBR
Unknown shape, 0.1 m
Radar Cross Section
Small (<0.1 m²)

Expand to show TLE details & history
Last TLE update: 15 hours ago

TLE from 15 hours ago
0 OV1-5 DEB
1  5599U 66025G   26125.30875281  .00110096  00000-0  78646-2 0  9997
2  5599 144.6098 288.7169 0013185 264.1246  95.7966 15.02716714 98199
Epoch: 2026-05-05T07:24Z
TLE epoch observation values (Epoch: 2026-05-05T07:24:36.242Z)
Latitude
-0.00003°
Longitude
-45.61952°
Altitude
558.416 km
Speed
7.584 km/s
True Right ascension
19h 14m 52s
True Declination
0° 00' 00"
Sunlit
Object was in daylight at epoch
Visualization orbit readout
Latitude
Unknown
Longitude
Unknown
Altitude
Unknown
Speed
Unknown
Apparent Right ascension
Unknown
Apparent Declination
Unknown
Sunlit
N/A
Visualization observer readout
Local Sidereal Time
06:23:05
Azimuth
Unknown
Elevation
Unknown
Doppler factor
Unknown
Orbital elements
Apogee altitude
570.834 km
Perigee altitude
552.533 km
Semi-major axis
6,939.821 km
Eccentricity
0.00132
Inclination
144.6098°
RAAN
288.7169°
Arg. of periapsis
264.1246°
True anomaly
95.94689°
Mean anomaly
95.7966°
Eccentric anomaly
95.87175°
Mean motion
3.75423 °/min
Orbital period
95.89 mins
BSTAR
0.0078646
Loading maneuver chart data...
Computing Atmospheric mass density...
Loading historical data...
Loading historical data...
Loading historical data...
Loading historical data...
Loading historical data...
Loading historical data...
Loading historical data...

Documentation

Showing up to 5 results
|